User: anonymous   Login
Location: Unspecified
(0.0000°N, 0.0000°E)
Time: 18:24:07
(UTC+00:00)
Language:

QIANFAN-53 - Orbit

View from above orbital plane
View from above orbital plane
View from above satellite
View from above satellite

Ground track
Ground track

The orbit is defined by the following mean orbital elements,

1 62254U          26145.46275117 +.00000000 +00000-0 +13318-3 0 00002
2 62254  89.0103  24.7660 0016252  80.4082 279.8904 13.51009553    06
Epoch (UTC): 25 May 2026 11:06:21
Eccentricity: 0.0016252
inclination: 89.0103°
perigee height: 1056 km
apogee height: 1081 km
right ascension of ascending node: 24.7660°
argument of perigee: 80.4082°
revolutions per day: 13.51009553
mean anomaly at epoch: 279.8904°

The dashed part of the orbit path shows where the satellite is in the earth's shadow,  

DLR